Regional Weather Roundup
Issued by NWS

Home | Current Version | Previous Version | Graphics & Text | Print | Product List | Glossary On
Versions: 1 2 3 4 5 6 7 8 9 10 11 12 13 14 15 16 17 18 19 20 21 22 23 24 25 26 27 28 29 30 31 32 33 34 35 36 37 38 39 40 41 42 43 44 45 46 47 48 49 50
301
ASUS44 KJAN 231510
RWRMS

MISSISSIPPI HOURLY WEATHER ROUNDUP
NATIONAL WEATHER SERVICE JACKSON MS
1000 AM CDT WED JUL 23 2014

NOTE: "FAIR: INDICATES FEW OR NO CLOUDS BELOW 12,000 FEET WITH NO
SIGNIFICANT WEATHER AND/OR OBSTRUCTIONS TO VISIBILITY.

MSZ001>002-007>008-010>013-018>021-025>028-034>036-231600-
NORTHWEST MISSISSIPPI

CITY           SKY/WX    TMP DP  RH WIND       PRES   REMARKS
CLARKSDALE     FAIR      82  73  74 CALM      30.08S
CLEVELAND      FAIR      81  77  86 CALM      30.07S
GREENWOOD      PTSUNNY   79  73  82 VRB3      30.08S
GREENVILLE     SUNNY     84  74  71 CALM      30.07S HX  91
GRENADA        FAIR      79  73  83 CALM      30.08S
OLIVE BRANCH   MOSUNNY   84  77  79 S7        30.06F HX  94
OXFORD         FAIR      81  72  74 CALM      30.10S
TUNICA         SUNNY     82  70  65 CALM      30.07F
$$

MSZ003>006-009-014>017-022>024-029>033-037>039-231600-
NORTHEAST MISSISSIPPI

CITY           SKY/WX    TMP DP  RH WIND       PRES   REMARKS
BELMONT        PTSUNNY   80  73  78 CALM      30.10R
COLUMBUS AFB   MOSUNNY   82  73  74 SE2       30.09S
CORINTH        FAIR      82  72  69 CALM      30.08S
GOLDN TRIANGLE SUNNY     81  72  74 CALM      30.09F
STARKVILLE     FAIR      79  72  78 CALM      30.08F
TUPELO         MOSUNNY   82  74  76 S6        30.08S
$$

MSZ040-058-231600-
CENTRAL MISSISSIPPI

CITY           SKY/WX    TMP DP  RH WIND       PRES   REMARKS
JACKSON INTL   PTSUNNY   82  70  66 E3        30.08S
JACKSON HAWKNS MOSUNNY   81  69  67 CALM      30.08S
MERIDIAN KEY   MOSUNNY   79  71  76 SE3       30.09S
MERIDIAN NAS   PTSUNNY   80  72  76 VRB5      30.09F
RAYMOND        FAIR      79  73  83 NW6       30.08S
VICKSBURG      SUNNY     81  71  71 CALM      30.08R
$$

MSZ059>079-231600-
SOUTH MISSISSIPPI

CITY           SKY/WX    TMP DP  RH WIND       PRES   REMARKS
BROOKHAVEN     FAIR      79  72  78 S3        30.10S
COLUMBIA       FAIR      77  72  83 CALM      30.07S
HATTIESBURG    CLOUDY    74  71  91 N5        30.09S FOG
MCCOMB         SUNNY     78  69  73 CALM      30.08S
NATCHEZ        MOSUNNY   77  70  78 CALM      30.09S
PINE BELT      CLOUDY    73  70  88 CALM      30.11R
$$

MSZ080>082-231600-
COASTAL MISSISSIPPI

CITY           SKY/WX    TMP DP  RH WIND       PRES   REMARKS
BAY ST LOUIS   MOSUNNY  N/A N/A N/A CALM      30.06F
BILOXI         PTSUNNY   77  72  83 SW5       30.05F
PASCAGOULA     PTSUNNY   83  73  72 VRB5      30.06F
GULFPORT       PTSUNNY   80  73  79 E6        30.06S
$$



USA.gov is the U.S. government's official web portal to all federal, state and local government web resources and services.